This demonstration page uses our WeatherBlox Daily Observations layout. Learn more.

Left ArrowRight Arrow

Hourly Observations for October 30, 2015

Temp ( °F °C ) Dew Point ( °F °C ) Humidity (%) Winds ( mph kmh ) Pressure ( in mb ) Visibility ( mi km ) Precip ( " mm )
12:51 am 00:51 Clear 51 10.6 48 8.9 89 89 SSE 9 15 29.66 1005 10 16 N/A
1:51 am 01:51 Clear 50 10 47 8.3 89 89 SE 7 11 29.67 1005 10 16 N/A
2:51 am 02:51 Mostly Clear 50 10 48 8.9 93 93 ESE 5 7 29.67 1005 10 16 N/A
3:51 am 03:51 Cloudy 51 10.6 48 8.9 89 89 ENE 12 19 29.66 1004 10 16 N/A
4:51 am 04:51 Cloudy 52 11.1 48 8.9 86 86 ESE 7 11 29.66 1004 10 16 N/A
5:51 am 05:51 Cloudy 51 10.6 49 9.4 92 92 S 5 7 29.67 1005 10 16 N/A
6:51 am 06:51 Cloudy with Light Rain 51 10.6 49 9.4 92 92 N N/A 29.68 1005 10 16 N/A
7:51 am 07:51 Cloudy 51 10.6 50 10 96 96 WNW 7 11 29.70 1006 10 16 N/A
8:51 am 08:51 Cloudy with Light Rain 53 11.7 50 10 89 89 VRB 5 7 29.73 1007 10 16 N/A
9:11 am 09:11 Cloudy with Light Rain 53 11.7 50 10 89 89 SSW 3 6 29.77 1008 10 16 N/A
9:51 am 09:51 Cloudy with Light Rain 54 12.2 50 10 87 87 N N/A 29.74 1007 10 16 N/A
10:51 am 10:51 Mostly Cloudy 58 14.4 49 9.4 72 72 NNW 3 6 29.73 1007 10 16 N/A
11:51 am 11:51 Partly Cloudy 61 16.1 48 8.9 63 63 W 8 13 29.71 1006 10 16 N/A
12:51 pm 12:51 Partly Cloudy 63 17.2 46 7.8 54 54 undefined N/A 29.67 1005 10 16 N/A
1:51 pm 13:51 Mostly Cloudy 64 17.8 46 7.8 52 52 W 7 11 29.66 1004 10 16 N/A
2:51 pm 14:51 Mostly Sunny 66 18.9 46 7.8 49 49 NW 10 17 29.66 1004 10 16 N/A
3:22 pm 15:22 Partly Cloudy with Nearby Thunderstorms 64 17.8 47 8.3 54 54 WNW 12 19 29.65 1004 10 16 N/A
3:30 pm 15:30 Partly Cloudy with Thunderstorms 65 18.3 46 7.8 51 51 WNW 13 20 29.65 1004 10 16 N/A
3:51 pm 15:51 Mostly Cloudy 63 17.2 47 8.3 56 56 NNW 20 31 29.70 1006 10 16 N/A
4:51 pm 16:51 Cloudy with Light Rain 58 14.4 51 10.6 78 78 N N/A 29.74 1007 10 16 N/A
5:51 pm 17:51 Cloudy 57 13.9 49 9.4 74 74 NW 6 9 29.75 1008 10 16 N/A
6:51 pm 18:51 Mostly Cloudy 57 13.9 49 9.4 74 74 NNW 10 17 29.78 1009 10 16 N/A
7:51 pm 19:51 Partly Cloudy 56 13.3 48 8.9 75 75 NNW 7 11 29.80 1009 10 16 N/A
8:51 pm 20:51 Mostly Clear 54 12.2 49 9.4 83 83 NW 3 6 29.82 1010 10 16 N/A
9:51 pm 21:51 Clear 52 11.1 48 8.9 86 86 NNW 6 9 29.84 1010 10 16 N/A
10:51 pm 22:51 Clear 52 11.1 47 8.3 83 83 N 5 7 29.84 1011 10 16 N/A
11:51 pm 23:51 Clear 49 9.4 46 7.8 90 90 NNE 3 6 29.85 1011 10 16 N/A

Powered by AerisWeather